EHI
13 13 11 4 1 0 0 1 0 0 0 0 0 0 1 1 1 0 0 2 6 7 6 5 4 3 3 3 3 3 3 3 3 2 1 0 0 0 0 0 0 1 1 1 1 1 0 0 0
12 10 6 2 0 0 1 1 1 0 0 0 0 0 0 1 1 1 0 2 5 6 5 4 3 3 3 3 3 2 3 3 3 2 1 0 0 0 0 0 0 1 2 2 2 2 1 1 1
11 7 3 1 0 0 1 2 1 0 0 0 0 0 0 1 1 1 1 3 6 6 4 3 3 3 3 3 3 3 3 3 3 2 1 1 0 0 1 0 0 1 1 1 2 3 3 2 1
12 8 3 0 0 0 1 1 1 1 1 0 0 0 0 0 0 0 2 5 7 6 4 3 3 3 3 3 3 3 3 3 3 1 1 1 0 0 0 0 0 0 0 0 1 2 2 1 1
11 8 3 0 0 0 1 2 2 2 2 1 0 0 0 0 0 0 3 6 6 5 4 3 3 3 3 3 3 3 3 3 2 1 0 1 0 0 0 0 0 0 0 0 1 1 1 0 0
9 7 3 0 0 1 2 2 2 2 2 1 0 0 0 0 1 1 3 5 5 4 4 3 2 3 3 3 3 3 3 2 1 0 0 0 0 0 0 0 0 0 0 1 1 1 1 0 0
7 5 1 0 0 1 2 2 2 1 1 1 0 0 0 1 2 2 2 3 3 3 3 2 1 1 2 3 3 3 2 1 0 0 0 0 0 0 0 0 0 0 0 1 2 2 1 0 0
4 2 0 0 0 1 1 1 1 0 0 0 0 0 0 1 2 2 1 1 1 2 2 1 0 0 1 1 2 2 1 1 0 0 0 0 0 0 0 0 0 0 0 1 1 1 0 0 0
1 0 0 0 0 1 1 1 0 0 0 0 0 0 0 0 1 1 0 0 0 1 1 0 0 0 0 0 1 1 1 1 0 0 1 0 0 0 0 0 0 0 0 0 0 0 0 0 0
0 0 0 0 0 0 0 0 0 0 0 0 0 0 0 0 0 0 0 0 1 1 0 0 0 0 0 0 0 0 0 0 0 0 0 0 0 0 0 0 0 0 0 0 0 0 0 0 0
0 0 0 0 0 0 0 0 0 0 0 0 0 0 0 0 0 0 0 1 2 2 1 0 0 0 0 0 0 0 0 0 0 0 0 0 0 0 0 0 0 0 0 0 0 0 0 0 0
0 0 0 0 0 0 0 0 0 1 0 0 0 0 0 0 0 0 0 1 2 3 2 0 0 0 0 0 0 0 0 0 0 0 0 0 0 0 0 0 0 0 0 0 0 0 0 0 0
0 0 0 0 0 0 0 0 0 0 0 0 0 0 0 0 0 0 0 0 1 2 1 0 0 0 0 0 0 0 0 0 0 0 0 0 0 0 0 0 0 0 0 0 0 0 0 0 0
0 0 0 0 0 0 0 0 0 0 0 0 0 0 0 0 0 0 0 0 0 0 0 0 0 0 0 0 0 0 0 0 0 0 0 0 0 0 0 0 0 0 0 0 0 0 0 0 0
0 0 0 0 0 0 0 0 0 0 0 0 0 0 0 0 0 0 0 0 0 0 0 0 0 0 0 0 0 0 0 0 0 0 0 0 0 0 0 0 0 0 0 0 0 0 0 0 0
0 0 0 0 0 0 0 0 0 0 0 0 0 0 0 0 0 0 0 0 0 0 0 0 0 0 0 0 0 0 0 0 0 0 0 0 0 0 0 0 0 0 0 0 0 0 0 0 0
0 0 0 0 0 0 0 1 1 1 0 0 0 0 0 0 0 0 0 0 0 0 0 0 0 0 0 0 0 0 0 0 0 0 0 0 0 0 0 0 0 0 0 0 0 0 0 0 0
0 0 0 0 0 0 0 1 1 1 0 0 1 0 0 0 0 0 0 0 0 0 0 0 0 0 0 0 0 0 0 0 0 0 0 0 0 0 0 0 0 0 0 0 0 0 0 0 0
0 0 0 0 0 0 0 0 0 0 0 0 1 0 0 0 0 0 0 0 0 0 0 0 0 0 0 0 0 0 0 0 0 0 0 0 0 0 0 0 0 0 0 0 0 0 0 0 0
0 0 0 0 0 0 0 0 0 0 0 0 1 0 0 0 0 0 0 0 0 0 0 1 1 1 0 0 0 0 0 0 0 0 0 0 0 0 0 0 0 0 0 0 0 0 0 0 0
0 0 0 0 0 0 0 0 0 0 0 0 0 0 0 0 0 0 0 0 0 0 0 1 2 1 1 1 1 0 0 0 0 0 0 0 0 0 0 0 0 0 0 0 0 0 0 0 0
0 0 0 0 0 0 0 0 0 0 0 0 0 0 0 0 0 0 0 0 0 0 0 1 1 1 2 2 1 0 0 0 0 0 0 0 0 0 0 0 0 0 0 0 0 0 0 0 0
0 0 0 0 0 0 0 0 0 0 0 0 0 0 0 0 0 0 0 0 0 0 0 0 0 1 2 2 1 0 0 0 0 0 0 0 0 0 0 0 0 0 0 0 0 0 0 0 0
0 0 0 0 0 0 0 0 0 0 0 0 1 1 0 0 0 0 0 0 0 0 0 0 0 1 2 1 0 0 0 0 0 0 0 0 0 0 0 0 0 0 0 0 0 0 0 0 0
0 0 0 0 0 0 0 0 0 0 0 1 2 2 1 0 0 0 0 0 0 0 0 0 0 1 1 0 0 0 0 0 0 0 0 0 0 0 0 0 0 0 0 0 0 0 0 0 0
0 0 0 0 0 0 0 0 0 0 0 1 3 2 1 0 0 0 0 0 0 0 0 0 0 0 0 0 0 0 0 0 0 0 0 0 0 0 0 0 0 0 0 0 0 0 0 0 0
0 0 0 0 0 0 0 0 0 0 0 2 3 2 1 0 0 0 0 0 0 0 0 0 0 0 0 0 0 0 0 0 0 0 0 0 0 0 0 0 0 0 0 0 0 0 0 0 0
0 0 0 0 0 0 0 0 0 0 0 1 2 2 1 0 0 0 0 0 0 0 0 0 0 0 0 0 0 0 0 0 0 0 0 0 0 0 0 0 0 0 0 0 0 0 0 0 0
0 0 0 0 0 0 0 0 0 0 0 0 1 1 0 0 0 0 0 0 0 0 0 0 0 0 0 0 0 0 0 0 0 0 0 0 0 0 0 0 0 0 0 0 0 0 0 0 0
0 0 0 0 0 0 0 0 0 0 0 0 0 0 0 0 0 0 0 0 0 0 0 0 0 0 0 0 0 0 0 0 0 0 0 0 0 0 0 0 0 0 0 0 0 0 0 0 0
Wind_Speed
9 9 5 2 2 2 2 4 6 7 7 8 10 10 11 11 9 8 3 7 11 11 11 11 12 13 13 13 13 13 13 12 12 12 11 11 11 10 10 10 9 9 9 9 9 8 8 8 7
9 7 4 3 3 1 3 6 8 8 6 6 9 11 12 11 11 9 5 8 12 12 11 11 13 13 13 13 13 13 12 12 12 12 12 11 11 10 10 9 9 9 9 8 8 8 8 7 7
10 7 3 3 2 1 5 7 7 8 7 7 8 11 9 7 8 6 7 10 13 13 11 12 14 14 14 13 13 13 12 12 12 12 11 11 10 10 9 8 8 9 8 8 8 8 7 7 7
5 3 4 2 1 5 7 7 7 8 7 8 9 10 9 8 7 8 10 12 14 13 12 12 14 14 14 13 13 13 12 12 11 11 11 10 10 9 8 8 8 8 8 8 7 7 7 7 6
3 3 3 1 2 6 7 6 7 7 8 10 12 11 9 10 11 10 10 11 13 12 12 12 14 14 13 13 12 12 12 11 10 10 10 9 8 8 7 7 7 7 7 7 7 6 6 6 6
3 3 3 1 3 6 7 7 9 9 10 11 12 11 7 8 10 9 9 9 11 12 12 11 13 13 13 12 11 11 10 10 9 8 7 6 6 6 5 6 6 6 6 6 6 5 5 4 4
3 3 3 2 3 5 6 8 9 8 8 8 8 10 8 8 6 8 9 9 10 11 11 10 10 10 12 11 10 10 8 8 6 5 4 3 3 4 4 5 5 5 5 5 4 4 3 3 3
3 3 2 1 3 5 6 8 8 8 8 6 7 9 9 9 7 7 8 8 9 9 9 9 9 8 8 7 9 9 7 6 5 4 3 3 3 3 3 4 4 4 3 3 3 2 2 3 4
3 1 1 2 3 4 6 8 8 8 10 11 11 12 13 12 9 8 8 7 7 8 7 7 7 7 7 6 8 8 7 6 6 5 6 4 3 3 3 5 4 2 1 1 2 3 4 5 5
1 1 2 3 4 4 5 6 6 7 10 12 14 14 14 11 9 8 8 8 7 6 6 6 6 5 4 4 5 4 4 4 3 2 2 1 1 2 3 5 4 3 3 3 5 6 6 6 3
1 1 2 3 4 4 5 6 6 7 8 10 13 13 11 10 8 8 7 7 7 7 5 5 5 5 4 3 2 1 2 1 2 3 3 3 3 1 2 2 3 3 3 2 3 4 4 3 1
3 2 2 3 4 4 5 6 8 9 9 11 13 12 10 10 8 8 8 8 7 6 4 4 3 4 4 3 2 2 2 2 3 3 4 3 2 2 2 1 1 1 0 1 1 1 2 2 2
3 3 3 4 4 5 7 8 8 9 10 12 12 11 10 9 8 8 8 8 7 6 4 3 3 3 4 3 1 4 3 3 3 2 2 3 2 2 2 2 2 2 2 2 2 3 3 4 4
3 5 3 4 4 5 8 7 6 9 10 12 11 9 9 8 9 8 8 7 7 6 5 3 3 4 4 3 3 3 2 2 3 2 2 3 3 3 3 3 3 2 2 2 2 3 3 2 2
4 4 3 2 3 5 6 6 7 9 10 10 10 9 8 8 7 7 7 6 6 6 5 4 3 4 5 5 3 3 3 3 3 2 4 4 4 4 3 3 2 3 3 3 3 3 3 3 2
4 3 2 3 4 4 4 5 7 8 9 9 9 8 7 7 8 6 6 6 5 6 6 4 4 5 6 4 3 3 3 3 3 3 4 5 5 5 4 3 3 4 3 3 2 2 2 3 3
3 4 4 4 4 4 4 6 8 7 9 8 8 8 7 7 7 6 6 6 5 5 6 5 5 5 5 4 3 3 3 3 3 4 4 5 5 5 4 3 3 4 4 3 4 4 3 2 3
4 4 4 5 5 5 5 6 8 9 9 9 8 8 8 8 7 7 6 5 5 5 6 6 5 5 4 2 3 3 3 3 3 3 4 5 4 5 4 3 4 4 3 4 3 4 3 2 2
3 3 3 3 4 4 6 7 8 8 8 8 8 8 8 9 8 7 7 5 5 4 5 6 5 5 4 2 3 2 2 2 3 4 4 4 5 5 4 3 3 3 3 4 4 3 4 3 2
3 3 3 5 4 3 5 6 8 8 8 7 8 9 10 9 9 7 6 5 5 5 4 5 5 5 4 2 2 2 2 2 3 3 3 4 4 4 4 4 3 3 3 4 4 4 3 3 3
4 4 4 5 5 4 4 4 8 8 7 7 6 7 9 10 10 9 7 6 5 5 4 5 5 5 4 3 2 2 2 2 2 2 2 3 3 4 4 4 3 2 2 2 3 3 4 3 3
2 1 3 6 4 3 5 3 6 9 9 9 8 7 8 8 9 8 7 6 5 5 5 4 5 5 4 3 3 2 2 2 2 2 1 2 3 3 3 3 3 3 2 2 3 3 2 2 2
1 2 4 4 4 4 4 3 4 9 10 10 10 9 8 9 10 9 7 6 6 5 4 4 4 4 3 4 3 2 2 2 2 2 2 2 2 2 2 2 2 3 3 3 4 3 3 2 2
3 3 3 3 3 4 6 5 3 8 12 12 11 11 9 10 9 9 7 6 5 5 4 4 4 4 3 3 4 3 4 3 3 3 2 1 1 2 3 3 3 3 3 3 3 2 3 3 3
5 3 2 3 3 4 5 4 3 6 9 11 12 11 10 10 9 9 8 6 6 5 4 4 4 3 2 2 4 4 4 2 3 2 1 2 2 2 3 3 3 3 3 3 3 3 3 2 2
5 5 3 2 2 1 3 3 3 7 7 9 10 11 10 10 9 9 8 7 6 6 5 4 5 4 3 2 3 4 4 2 2 2 1 2 2 2 2 3 3 4 4 4 3 3 3 3 3
4 6 6 3 3 1 3 5 6 7 8 9 10 11 11 11 10 10 9 8 7 6 5 5 5 4 3 2 3 4 4 3 2 1 2 2 2 2 3 3 3 3 3 3 3 3 3 3 3
6 6 4 3 1 0 2 4 5 9 9 9 10 12 11 11 11 10 8 8 6 5 5 6 5 4 3 3 3 4 3 3 2 2 3 2 3 3 2 3 3 3 3 3 3 3 3 4 3
7 7 4 2 2 1 0 1 3 9 9 10 10 10 11 11 10 9 8 7 7 6 5 5 5 4 3 3 3 3 3 3 2 2 2 2 2 2 2 2 3 3 3 3 3 3 3 3 3
6 6 5 2 3 2 1 1 1 8 9 9 10 10 11 11 10 10 9 8 7 6 6 5 5 4 4 3 3 3 3 3 2 2 2 2 2 2 2 3 3 3 3 3 3 3 3 3 3
Wind_Direction
283 265 260 266 254 237 70 76 79 71 67 58 57 65 65 52 59 90 117 104 103 103 102 97 96 94 93 91 89 86 86 84 82 82 82 80 78 75 71 68 65 62 59 55 51 47 45 43 40
285 285 273 241 258 216 81 85 80 78 84 85 72 71 71 65 75 94 107 102 104 102 99 97 98 95 93 91 89 87 86 84 82 80 79 77 74 72 69 66 63 60 57 53 48 44 42 40 37
273 272 268 251 273 60 95 89 90 90 83 78 74 63 56 68 73 94 114 108 102 98 97 100 98 97 96 94 93 91 88 85 81 77 76 74 71 68 65 61 58 56 54 51 45 42 39 38 34
276 268 245 247 28 65 95 105 110 99 85 78 83 73 65 57 83 108 111 105 103 102 101 102 100 98 95 94 93 92 89 86 82 78 74 71 67 63 60 56 54 52 49 49 46 41 39 36 30
253 262 252 225 93 92 93 98 96 86 79 81 86 90 82 78 97 106 104 104 107 108 108 108 104 101 97 95 93 91 88 83 79 76 72 67 64 61 55 54 51 48 46 47 46 42 39 35 26
268 259 257 174 106 88 81 82 86 86 87 92 101 98 91 103 107 108 109 109 109 112 114 115 111 108 104 100 95 93 90 85 81 78 74 72 72 69 61 57 49 44 41 43 44 39 33 26 15
279 282 273 127 108 90 87 80 82 86 84 78 100 101 111 113 116 118 117 114 115 117 120 124 126 120 114 111 109 106 104 102 98 96 102 105 103 102 89 68 53 47 39 36 35 30 15 358 338
286 293 293 127 112 89 87 85 83 87 80 80 92 110 126 136 136 124 118 115 117 121 125 130 130 131 130 131 131 131 134 136 143 161 190 194 185 162 134 106 73 53 33 22 8 344 315 300 289
285 295 23 62 80 96 98 95 84 84 83 71 75 99 121 136 140 134 123 118 116 115 121 125 130 131 139 148 146 157 165 177 180 199 219 222 211 174 155 110 115 95 10 315 293 287 280 274 265
250 8 47 61 82 102 95 96 105 103 94 90 91 102 123 138 139 132 127 123 120 119 118 119 124 128 129 119 144 175 162 167 188 173 145 224 72 76 101 135 166 197 230 249 257 265 271 261 250
91 72 39 61 79 93 97 95 94 103 101 113 119 125 133 139 136 130 123 116 112 109 105 115 124 124 122 118 123 128 116 119 62 32 76 44 27 38 102 164 187 215 225 246 245 251 255 250 237
108 85 73 70 69 77 84 84 83 81 100 115 121 130 138 141 135 129 121 117 114 108 105 102 107 114 107 93 100 74 62 66 56 22 37 63 26 8 27 40 9 7 15 357 330 301 320 339 351
136 123 91 84 85 95 95 92 89 96 107 117 126 134 139 138 131 124 126 126 122 121 117 107 101 101 105 97 72 83 62 50 69 20 26 60 36 27 24 42 19 7 17 2 342 352 8 8 3
126 118 108 97 106 108 107 104 103 113 120 125 130 133 130 127 129 132 131 123 116 115 116 105 103 91 88 85 77 82 101 88 64 9 30 56 47 41 23 36 15 6 8 355 359 14 9 9 17
136 132 121 130 143 137 121 109 123 133 136 134 132 125 121 122 121 119 120 120 122 122 116 104 97 87 80 70 56 74 71 76 65 26 23 50 48 40 29 22 15 4 12 14 5 13 5 7 26
175 180 160 166 165 166 154 130 133 145 142 134 128 124 122 118 116 114 116 118 121 119 115 109 89 88 82 75 48 61 65 60 64 47 24 34 46 45 30 11 10 14 13 8 360 19 15 7 9
203 196 176 168 175 172 149 139 150 153 139 134 136 139 138 128 118 124 119 118 120 116 117 109 86 88 84 91 82 57 76 63 61 50 33 23 30 38 39 13 13 22 14 4 8 24 14 5 354
203 193 184 172 170 170 149 147 154 156 151 149 152 149 147 140 137 135 125 124 121 121 118 108 101 94 100 87 81 64 57 64 68 64 47 26 24 30 33 23 23 24 17 6 12 18 11 2 349
237 207 171 152 160 163 158 155 159 160 161 161 163 157 154 144 141 134 134 135 130 121 111 113 113 94 80 61 69 73 69 65 66 62 49 33 33 19 23 26 22 22 24 12 13 14 10 354 356
210 182 143 146 165 171 163 165 163 168 176 174 173 163 156 144 144 138 140 139 128 123 119 121 106 96 89 80 91 93 85 86 86 66 54 41 36 17 18 29 24 24 19 16 11 20 9 353 6
205 190 179 176 169 178 180 190 175 174 181 179 176 160 149 154 152 146 144 135 127 124 113 109 107 107 110 112 85 82 66 51 83 88 69 52 42 30 18 19 17 13 34 23 2 23 23 0 352
212 175 178 182 180 200 209 206 189 180 184 183 175 162 151 150 142 138 136 131 129 122 124 128 119 118 121 111 97 109 110 94 83 87 95 92 62 55 20 9 11 21 33 23 7 38 11 14 355
164 176 201 204 213 229 219 229 197 175 184 182 171 166 160 151 144 141 138 133 128 124 119 114 111 109 102 101 102 81 78 88 86 81 73 79 63 52 26 5 23 30 29 26 20 26 23 22 14
179 202 217 219 235 247 226 215 197 185 185 175 171 167 162 151 145 142 137 131 126 118 107 102 99 88 91 114 117 96 81 75 79 65 49 62 74 28 31 18 30 40 34 29 8 21 34 32 15
197 212 222 203 204 230 209 199 189 164 169 166 164 161 156 148 147 145 143 144 135 134 132 122 115 115 122 117 116 112 104 90 86 83 70 48 59 36 23 24 27 30 23 32 11 21 18 32 17
208 212 236 251 213 169 180 181 132 129 142 149 149 150 149 148 149 148 149 148 143 142 142 139 133 126 117 105 100 107 108 86 84 53 57 63 72 63 32 25 41 34 24 24 22 22 13 18 16
214 223 235 267 283 239 185 137 121 126 136 144 146 148 153 154 152 153 152 149 147 147 147 140 132 129 133 123 96 83 87 73 78 61 48 52 63 63 45 25 48 49 34 23 23 21 8 13 22
245 252 248 230 263 281 196 166 158 157 159 157 156 155 156 153 152 148 146 142 141 142 142 133 135 135 132 118 112 107 100 91 67 57 60 42 47 52 49 37 37 44 30 23 29 20 6 10 11
217 235 247 259 251 249 25 44 120 155 159 159 158 153 152 152 148 144 143 143 141 140 135 132 136 130 124 117 108 111 107 97 77 53 66 59 56 56 49 47 44 44 29 21 28 12 8 3 356
244 241 239 253 275 254 176 100 86 141 147 151 153 150 151 150 148 145 144 142 142 148 145 144 142 133 125 115 103 97 94 88 71 53 48 42 48 45 46 42 38 36 32 22 14 1 6 0 356